FW2061 Weather Reports


Display with metric or nautical units.
time (UTC)temp
F
wind
direction
speed
MPH
gust
MPH
rain 1hr
in
rain 24hr
in
rain mn
in
humidity
%
barometer
mb
20260507003557 57 297 1.0 3.0 0.00 0.00 0.00 81 1019.9
20260507003040 58 287 1.0 3.0 0.00 0.00 0.00 80 1019.9
20260507002533 58 276 1.0 5.0 0.00 0.00 0.00 81 1019.9
20260507002046 57 356 0.0 5.0 0.00 0.00 0.00 80 1019.8
20260507001553 58 311 1.0 4.0 0.00 0.00 0.00 81 1019.8
20260507001044 57 328 2.0 7.0 0.00 0.00 0.00 81 1019.7
20260507000528 57 321 3.0 7.0 0.00 0.00 0.00 81 1019.9
20260507000037 57 353 2.0 6.0 0.00 0.00 0.00 81 1019.8
20260506235550 57 200 2.0 6.0 0.00 0.00 0.00 81 1019.8
20260506235033 57 287 1.0 10.0 0.00 0.00 0.00 81 1019.8
20260506234547 57 224 0.0 10.0 0.00 0.00 0.00 81 1019.9
20260506234026 57 347 3.0 6.0 0.00 0.00 0.00 82 1019.9
20260506233539 57 239 3.0 6.0 0.00 0.00 0.00 82 1019.9
20260506233047 57 306 3.0 7.0 0.00 0.00 0.00 82 1019.9
20260506232531 57 305 4.0 7.0 0.00 0.00 0.00 82 1019.9
20260506232022 57 314 3.0 6.0 0.00 0.00 0.00 82 1019.8
20260506231524 57 7 3.0 6.0 0.00 0.00 0.00 82 1019.9
20260506231037 57 356 4.0 8.0 0.00 0.00 0.00 82 1019.9
20260506230529 57 329 4.0 8.0 0.00 0.00 0.00 82 1020.0
20260506230041 57 347 4.0 9.0 0.00 0.00 0.00 82 1020.0
20260506225524 57 8 4.0 9.0 0.00 0.00 0.00 82 1019.9
20260506225035 57 322 3.0 8.0 0.00 0.00 0.00 82 1020.0
20260506224546 57 25 5.0 9.0 0.00 0.00 0.00 82 1020.0
20260506224029 57 17 5.0 11.0 0.00 0.00 0.00 82 1019.9
20260506223538 57 1 5.0 11.0 0.00 0.00 0.00 82 1019.9
20260506223048 57 359 3.0 8.0 0.00 0.00 0.00 83 1019.9
20260506222540 56 22 1.0 9.0 0.00 0.00 0.00 84 1020.0
20260506222040 56 340 2.0 9.0 0.00 0.00 0.00 84 1020.1
20260506221532 56 347 4.0 6.0 0.00 0.00 0.00 84 1020.1
20260506221043 56 1 3.0 7.0 0.00 0.00 0.00 84 1020.1
20260506220527 56 59 2.0 7.0 0.00 0.00 0.00 84 1020.1
20260506220040 56 347 4.0 7.0 0.00 0.00 0.00 84 1020.2
20260506215551 56 304 2.0 9.0 0.00 0.00 0.00 84 1020.2
20260506215054 56 27 4.0 9.0 0.00 0.00 0.00 83 1020.2
20260506214524 56 309 4.0 7.0 0.00 0.00 0.00 84 1020.2
20260506214034 56 15 3.0 9.0 0.00 0.00 0.00 85 1020.2
20260506213606 56 355 4.0 9.0 0.00 0.00 0.00 84 1020.1
20260506213024 56 345 5.0 8.0 0.00 0.00 0.00 84 1020.1
20260506212537 56 303 4.0 8.0 0.00 0.00 0.00 84 1020.1
20260506212049 55 285 3.0 8.0 0.00 0.00 0.00 85 1020.1
20260506211531 56 15 5.0 8.0 0.00 0.00 0.00 84 1020.1
20260506211100 56 360 4.0 7.0 0.00 0.00 0.00 85 1020.1
20260506210531 55 286 2.0 10.0 0.00 0.00 0.00 85 1020.1
20260506205524 56 339 5.0 9.0 0.00 0.00 0.00 83 1020.2
20260506205035 57 228 3.0 9.0 0.00 0.00 0.00 81 1020.2
20260506204525 58 55 4.0 8.0 0.00 0.00 0.00 78 1020.1
20260506204038 58 110 4.0 12.0 0.00 0.00 0.00 79 1020.0
20260506203540 58 190 5.0 12.0 0.00 0.00 0.00 79 1019.9
20260506203030 58 117 6.0 11.0 0.00 0.00 0.00 79 1019.9
20260506202540 58 116 7.0 11.0 0.00 0.00 0.00 79 1020.1
20260506202042 58 149 7.0 12.0 0.00 0.00 0.00 78 1019.9
20260506201535 58 140 7.0 12.0 0.00 0.00 0.00 79 1019.9
20260506201048 58 105 6.0 10.0 0.00 0.00 0.00 80 1019.8
20260506200531 58 111 6.0 10.0 0.00 0.00 0.00 80 1019.7
20260506200040 58 127 6.0 10.0 0.00 0.00 0.00 80 1019.8
20260506195524 57 134 6.0 9.0 0.00 0.00 0.00 80 1019.9
20260506195037 57 163 5.0 10.0 0.00 0.00 0.00 81 1019.9
20260506194528 57 101 4.0 10.0 0.00 0.00 0.00 82 1020.0
20260506194026 57 111 6.0 10.0 0.00 0.00 0.00 82 1020.0
20260506193539 57 78 4.0 9.0 0.00 0.00 0.00 82 1020.1
20260506193028 57 110 6.0 9.0 0.00 0.00 0.00 82 1019.8
20260506192531 57 188 3.0 9.0 0.00 0.00 0.00 82 1019.9
20260506192043 57 135 5.0 9.0 0.00 0.00 0.00 82 1019.7
20260506191532 57 114 5.0 12.0 0.00 0.00 0.00 83 1019.7
20260506191022 57 79 6.0 12.0 0.00 0.00 0.00 83 1019.7
20260506190532 57 213 3.0 11.0 0.00 0.00 0.00 84 1019.7
20260506190103 57 122 5.0 11.0 0.00 0.00 0.00 83 1019.6
20260506185546 57 113 6.0 11.0 0.00 0.00 0.00 83 1019.7
20260506185044 57 103 5.0 11.0 0.00 0.00 0.00 83 1019.6
20260506184527 57 108 6.0 11.0 0.00 0.00 0.00 83 1019.6
20260506184036 57 176 5.0 11.0 0.00 0.00 0.00 83 1019.6
20260506183543 57 95 7.0 14.0 0.00 0.00 0.00 84 1019.6
20260506183027 57 121 9.0 14.0 0.00 0.00 0.00 84 1019.6
20260506182539 57 122 6.0 11.0 0.00 0.00 0.00 85 1019.5
20260506182046 56 105 6.0 11.0 0.00 0.00 0.00 85 1019.5
20260506181529 56 135 6.0 11.0 0.00 0.00 0.00 85 1019.6
20260506181036 56 119 4.0 12.0 0.00 0.00 0.00 85 1019.6
20260506180549 56 115 7.0 12.0 0.00 0.00 0.00 85 1019.5
20260506180100 56 115 6.0 11.0 0.00 0.00 0.00 86 1019.4
20260506175541 56 160 7.0 10.0 0.00 0.00 0.00 85 1019.5
20260506175031 56 153 5.0 12.0 0.00 0.00 0.00 85 1019.5
20260506174545 56 86 6.0 12.0 0.00 0.00 0.00 85 1019.5
20260506174023 56 122 7.0 9.0 0.00 0.00 0.00 85 1019.3
20260506173604 56 102 6.0 9.0 0.00 0.00 0.00 85 1019.5
20260506173024 56 170 6.0 12.0 0.00 0.00 0.00 85 1019.4
20260506172535 56 100 7.0 12.0 0.00 0.00 0.00 85 1019.2
20260506172043 56 106 6.0 10.0 0.00 0.00 0.00 85 1019.1
20260506171525 56 138 6.0 10.0 0.00 0.00 0.00 86 1019.0
20260506171036 56 147 6.0 9.0 0.00 0.00 0.00 86 1019.0
20260506170549 56 132 6.0 9.0 0.00 0.00 0.00 86 1019.1
20260506170032 56 115 4.0 8.0 0.00 0.00 0.00 87 1019.1
20260506165545 56 106 4.0 8.0 0.00 0.00 0.00 87 1019.2
20260506165027 56 108 4.0 8.0 0.00 0.00 0.00 87 1019.4
20260506164559 56 117 3.0 8.0 0.00 0.00 0.00 87 1019.2
20260506164029 56 121 5.0 8.0 0.00 0.00 0.00 87 1019.2
20260506163542 56 113 5.0 9.0 0.00 0.00 0.00 87 1019.0
20260506163042 56 122 4.0 9.0 0.00 0.00 0.00 87 1019.2
20260506162532 56 123 3.0 8.0 0.00 0.00 0.00 86 1019.4
20260506162042 56 181 2.0 6.0 0.00 0.00 0.00 87 1019.4
20260506161524 55 129 3.0 6.0 0.00 0.00 0.00 87 1019.4
20260506161036 55 58 3.0 8.0 0.00 0.00 0.00 87 1019.2
20260506160547 55 156 3.0 8.0 0.00 0.00 0.00 87 1019.2
20260506160022 55 132 4.0 7.0 0.00 0.00 0.00 87 1019.2
20260506155533 55 110 5.0 9.0 0.00 0.00 0.00 87 1019.1
20260506155024 55 124 5.0 9.0 0.00 0.00 0.00 87 1019.1
20260506154524 55 108 5.0 9.0 0.00 0.00 0.00 87 1019.0
20260506154036 55 127 5.0 12.0 0.00 0.00 0.00 87 1018.9
20260506153548 55 138 8.0 12.0 0.00 0.00 0.00 88 1018.7
20260506153031 55 116 7.0 11.0 0.00 0.00 0.00 88 1018.7
20260506152544 55 122 7.0 12.0 0.00 0.00 0.00 89 1018.8
20260506152035 54 115 7.0 12.0 0.00 0.00 0.00 90 1018.5
20260506151546 54 127 7.0 13.0 0.00 0.00 0.00 90 1018.6
20260506151049 54 132 9.0 13.0 0.00 0.00 0.00 91 1018.6
20260506150539 54 127 7.0 10.0 0.00 0.00 0.00 92 1018.6
20260506150028 54 124 7.0 9.0 0.00 0.00 0.00 92 1018.7
20260506145532 53 129 6.0 8.0 0.00 0.00 0.00 93 1018.7
20260506145042 53 122 5.0 8.0 0.00 0.00 0.00 93 1018.8
20260506144532 53 140 1.0 3.0 0.00 0.00 0.00 93 1019.0
20260506144036 53 250 1.0 2.0 0.00 0.00 0.00 93 1019.1
20260506143527 53 186 0.0 6.0 0.00 0.00 0.00 94 1019.0
20260506143034 53 134 2.0 6.0 0.00 0.00 0.00 93 1018.7
20260506142603 53 127 3.0 6.0 0.00 0.00 0.00 94 1018.5
20260506142053 53 150 5.0 6.0 0.00 0.00 0.00 93 1018.5
20260506141537 53 140 3.0 4.0 0.00 0.00 0.00 93 1018.5
20260506141042 53 145 2.0 5.0 0.00 0.00 0.00 93 1018.6
20260506140525 53 132 4.0 5.0 0.00 0.00 0.00 93 1018.6
20260506140036 53 128 4.0 5.0 0.00 0.00 0.00 93 1018.6
20260506135549 53 179 3.0 5.0 0.00 0.00 0.00 93 1018.5
20260506135030 53 130 3.0 6.0 0.00 0.00 0.00 93 1018.5
20260506134542 53 121 4.0 7.0 0.00 0.00 0.00 93 1018.5
20260506134052 53 161 5.0 8.0 0.00 0.00 0.00 93 1018.4
20260506133542 53 134 5.0 8.0 0.00 0.00 0.00 93 1018.3
20260506133042 53 122 3.0 4.0 0.00 0.00 0.00 92 1018.5
20260506132534 53 188 2.0 4.0 0.00 0.00 0.00 93 1018.6
20260506132046 53 194 1.0 3.0 0.00 0.00 0.00 93 1018.4
20260506131529 53 195 0.0 3.0 0.00 0.00 0.00 93 1018.5
20260506131040 53 195 0.0 3.0 0.00 0.00 0.00 93 1018.6
20260506130551 53 185 1.0 3.0 0.00 0.00 0.00 93 1018.4
20260506130033 52 203 0.0 2.0 0.00 0.00 0.00 93 1018.4
20260506125608 52 236 0.0 1.0 0.00 0.00 0.00 93 1018.5
20260506125029 52 214 0.0 0.0 0.00 0.00 0.00 93 1018.3
20260506124542 52 214 0.0 0.0 0.00 0.00 0.00 93 1018.1
20260506124026 52 214 0.0 0.0 0.00 0.00 0.00 93 1018.1
20260506123539 52 214 0.0 0.0 0.00 0.00 0.00 93 1018.0
20260506123050 52 214 0.0 2.0 0.00 0.00 0.00 93 1018.0
20260506122539 52 213 0.0 2.0 0.00 0.00 0.00 93 1018.0
20260506122040 52 214 0.0 2.0 0.00 0.00 0.00 93 1018.0
20260506121532 52 234 0.0 0.0 0.00 0.00 0.00 93 1018.0
20260506121043 52 234 0.0 0.0 0.00 0.00 0.00 93 1018.1
20260506120527 52 235 0.0 0.0 0.00 0.00 0.00 93 1018.2
20260506120039 52 235 0.0 0.0 0.00 0.00 0.00 94 1018.0
20260506115551 52 235 0.0 0.0 0.00 0.00 0.00 93 1018.1
20260506115033 52 235 0.0 0.0 0.00 0.00 0.00 94 1018.1
20260506114526 52 234 0.0 0.0 0.00 0.00 0.00 94 1018.2
20260506114038 51 234 0.0 0.0 0.00 0.00 0.00 94 1018.1
20260506113541 51 234 0.0 0.0 0.00 0.00 0.00 94 1018.0
20260506113029 51 235 0.0 0.0 0.00 0.00 0.00 94 1017.9
20260506112541 51 234 0.0 0.0 0.00 0.00 0.00 94 1017.9
20260506112049 51 235 0.0 0.0 0.00 0.00 0.00 94 1017.9
20260506111529 51 234 0.0 0.0 0.00 0.00 0.00 94 1017.8
20260506111040 51 235 0.0 0.0 0.00 0.00 0.00 94 1017.8
20260506110524 51 234 0.0 0.0 0.00 0.00 0.00 94 1017.7
20260506110036 51 234 0.0 0.0 0.00 0.00 0.00 94 1017.6
20260506105529 51 234 0.0 0.0 0.00 0.00 0.00 94 1017.5
20260506105030 50 235 0.0 0.0 0.00 0.00 0.00 94 1017.4
20260506104551 50 234 0.0 1.0 0.00 0.00 0.00 94 1017.2
20260506104032 50 235 0.0 1.0 0.00 0.00 0.00 94 1017.2
20260506103526 50 234 0.0 1.0 0.00 0.00 0.00 94 1017.2
20260506103025 50 235 0.0 1.0 0.00 0.00 0.00 94 1017.2
20260506102537 50 234 0.0 1.0 0.00 0.00 0.00 94 1017.1
20260506102028 50 235 0.0 1.0 0.00 0.00 0.00 94 1017.1
20260506101532 50 235 0.0 0.0 0.00 0.00 0.00 94 1017.1
20260506101024 50 235 0.0 0.0 0.00 0.00 0.00 94 1017.1
20260506100551 50 234 0.0 1.0 0.00 0.00 0.00 94 1017.1
20260506100042 50 234 0.0 1.0 0.00 0.00 0.00 93 1017.0
20260506095552 50 234 1.0 2.0 0.00 0.00 0.00 94 1017.0
20260506095036 50 235 1.0 2.0 0.00 0.00 0.00 93 1017.0
20260506094528 50 235 2.0 2.0 0.00 0.00 0.00 94 1017.0
20260506094032 50 234 1.0 2.0 0.00 0.00 0.00 93 1017.0
20260506093524 50 235 1.0 2.0 0.00 0.00 0.00 93 1017.0
20260506093036 50 235 0.0 0.0 0.00 0.00 0.00 93 1016.9
20260506092539 51 234 0.0 0.0 0.00 0.00 0.00 94 1016.9
20260506092030 51 234 0.0 0.0 0.00 0.00 0.00 93 1016.9
20260506091543 51 234 0.0 1.0 0.00 0.00 0.00 93 1016.8
20260506091025 51 235 0.0 1.0 0.00 0.00 0.00 93 1016.8
20260506090558 51 235 0.0 2.0 0.00 0.00 0.00 93 1016.9
20260506090028 51 235 1.0 3.0 0.00 0.00 0.00 93 1017.0
20260506085538 51 246 1.0 3.0 0.00 0.00 0.00 92 1017.0
20260506085049 51 240 1.0 3.0 0.00 0.00 0.00 92 1016.9
20260506084533 51 233 1.0 3.0 0.00 0.00 0.00 93 1016.8
20260506084045 51 244 2.0 3.0 0.00 0.00 0.00 93 1016.8
20260506083528 51 240 1.0 2.0 0.00 0.00 0.00 92 1016.7
20260506083057 51 240 1.0 2.0 0.00 0.00 0.00 93 1016.6
20260506082528 51 251 1.0 2.0 0.00 0.00 0.00 92 1016.7
20260506082101 51 250 1.0 2.0 0.00 0.00 0.00 93 1016.6
20260506081524 51 250 1.0 1.0 0.00 0.00 0.00 92 1016.5
20260506081036 51 250 0.0 1.0 0.00 0.00 0.00 92 1016.4
20260506080548 51 250 1.0 2.0 0.00 0.00 0.00 92 1016.4
20260506073023 51 231 0.0 0.0 0.00 0.00 0.00 92 1016.0
20260506072535 51 231 0.0 0.0 0.00 0.00 0.00 93 1015.9
20260506072039 51 231 0.0 0.0 0.00 0.00 0.00 92 1016.0
20260506071530 51 231 0.0 0.0 0.00 0.00 0.00 92 1016.0
20260506071039 51 231 0.0 0.0 0.00 0.00 0.00 92 1015.9
20260506070541 51 231 0.0 0.0 0.00 0.00 0.00 92 1016.0
20260506062101 52 231 1.0 1.0 0.00 0.00 0.00 91 1015.8
20260506061532 52 231 0.0 0.0 0.00 0.00 0.00 91 1015.9
20260506061045 53 231 0.0 1.0 0.00 0.00 0.00 91 1015.8
20260506060527 53 231 0.0 1.0 0.00 0.00 0.00 91 1015.8
20260506051051 54 237 1.0 2.0 0.00 0.00 0.00 90 1015.2
20260506050542 54 237 0.0 1.0 0.00 0.00 0.00 89 1015.1
20260506045028 55 237 1.0 3.0 0.00 0.00 0.00 88 1015.1
20260506044528 55 237 2.0 5.0 0.00 0.00 0.00 88 1015.0
20260506044040 56 236 3.0 5.0 0.00 0.00 0.00 88 1015.0
20260506043532 55 245 3.0 4.0 0.00 0.00 0.00 89 1015.0
20260506043037 55 247 3.0 4.0 0.00 0.00 0.00 88 1015.0
20260506042529 55 245 3.0 4.0 0.00 0.00 0.00 88 1014.9
20260506042040 55 243 3.0 4.0 0.00 0.00 0.00 88 1014.9
20260506041551 55 247 3.0 4.0 0.00 0.00 0.00 88 1014.8
20260506041105 55 240 3.0 4.0 0.00 0.00 0.00 88 1014.8
20260506040527 55 240 3.0 4.0 0.00 0.00 0.00 88 1014.7
20260506040038 55 240 3.0 3.0 0.00 0.00 0.00 88 1014.6
20260506035549 55 231 2.0 2.0 0.00 0.00 0.00 88 1014.6
20260506035029 55 227 0.0 1.0 0.00 0.00 0.00 88 1014.7
20260506034611 55 263 0.0 1.0 0.00 0.00 0.00 87 1014.7
20260506034033 56 263 0.0 1.0 0.00 0.00 0.00 87 1014.6
20260506033546 56 263 0.0 1.0 0.00 0.00 0.00 87 1014.6
20260506033051 56 263 0.0 1.0 0.00 0.00 0.00 86 1014.6
20260506032534 56 263 0.0 1.0 0.00 0.00 0.00 86 1014.6
20260506032026 57 263 0.0 1.0 0.00 0.00 0.00 85 1014.5
20260506031529 57 263 0.0 4.0 0.00 0.00 0.00 85 1014.5
20260506031107 57 263 1.0 4.0 0.00 0.00 0.00 85 1014.6
20260506030549 58 240 0.0 3.0 0.00 0.00 0.00 84 1014.4
20260506030036 58 236 0.0 3.0 0.00 0.00 0.00 83 1014.5
20260506025548 58 222 1.0 3.0 0.00 0.00 0.00 83 1014.5
20260506025037 58 131 1.0 3.0 0.00 0.00 0.00 83 1014.5
20260506024548 58 212 0.0 3.0 0.00 0.00 0.00 83 1014.4
20260506024031 59 224 0.0 2.0 0.00 0.00 0.00 82 1014.4
20260506023544 59 224 0.0 2.0 0.00 0.00 0.00 82 1014.4
20260506023053 59 271 0.0 2.0 0.00 0.00 0.00 82 1014.4
20260506022538 59 198 0.0 2.0 0.00 0.00 0.00 81 1014.3
20260506022039 60 234 0.0 2.0 0.00 0.00 0.00 81 1014.4
20260506021530 60 258 1.0 3.0 0.00 0.00 0.00 81 1014.4
20260506021042 60 244 0.0 3.0 0.00 0.00 0.00 81 1014.4
20260506020525 60 281 0.0 3.0 0.00 0.00 0.00 81 1014.3
20260506020037 60 290 0.0 3.0 0.00 0.00 0.00 81 1014.3
20260506015549 61 243 1.0 3.0 0.00 0.00 0.00 81 1014.3
20260506015032 61 246 1.0 3.0 0.00 0.00 0.00 80 1014.3
20260506014524 61 217 0.0 2.0 0.00 0.00 0.00 80 1014.4
20260506014026 61 216 0.0 2.0 0.00 0.00 0.00 79 1014.4
20260506013538 62 230 1.0 2.0 0.00 0.00 0.00 79 1014.3
20260506013028 62 246 1.0 2.0 0.00 0.00 0.00 79 1014.3
20260506012530 62 250 1.0 2.0 0.00 0.00 0.00 79 1014.2
20260506012037 62 253 0.0 4.0 0.00 0.00 0.00 79 1014.2
20260506011529 62 258 1.0 13.0 0.00 0.00 0.00 79 1014.3
20260506011032 62 176 5.0 13.0 0.00 0.00 0.00 78 1014.2
20260506010544 62 216 1.0 8.0 0.00 0.00 0.00 77 1014.3
20260506010031 62 218 3.0 8.0 0.00 0.00 0.00 76 1014.3
20260506005530 62 134 3.0 7.0 0.00 0.00 0.00 77 1014.2
20260506005022 62 153 4.0 7.0 0.00 0.00 0.00 77 1014.4
20260506004534 62 179 3.0 8.0 0.00 0.00 0.00 77 1014.4
20260506004040 62 233 3.0 8.0 0.00 0.00 0.00 76 1014.3